Aeroporto :
LOGIN :

Iscrizione | Disclaimer

   EN    FR    IT 

 










Sommario :    VFR   VFR Marginale   IFR   IFR Intensivo   IFR Molto Intensivo
Visibilità : 
Base nubi : 
>= 8 km
>= 3000ft
5 / 8 km
1000 / 3000 ft
1500m / 5 km
500 / 1000 ft
800 / 1500m
200 / 500 ft
< 800m
< 200 ft
Simboli :   Temporali  Nebbia  Neve Forte  Precipitazioni Forti  Vento > 20 kt
SIGMETs :   Varie  Temporali  Ghiacco  Turbolenza  Onda orograficha  Ceneri Vulcaniche






- Altitudine del aeroporto : 102 ft
- Codice IATA : CNG


LFBG - Cognac

ULTIMO METAR :
  • 022000Z AUTO 34008KT CAVOK 10/01 Q1017

METARs OBSOLETI :
  • 021930Z AUTO 34008KT CAVOK 11/01 Q1016
  • 021900Z AUTO 35008KT CAVOK 12/00 Q1016
  • 021830Z AUTO 35009KT CAVOK 13/M00 Q1016
  • 021800Z AUTO 35009KT CAVOK 14/M01 Q1015
  • 021730Z AUTO 34011KT CAVOK 14/M02 Q1015
  • 021700Z AUTO 34010KT CAVOK 15/M02 Q1015

TAF TAF LFBG
Valido dal 02 a 15 ore il 03 a 15 ore UTC


021400Z 0215/0315 02008KT CAVOK



MetMap, La meteo Aeronautica in un colpo d'occhio ! - Copyright ORBIFLY Dicembre 2007 - Disclaimer

ORBIFLY MET'MAP TEAM :

Programmazione e sviluppo : Alexandra Zaïnal
Concezione : Baudouin d'Aumeries
Aiuto per la programmazione : Marc-Olivier Méhu
Supporto tecnico e logistico : Manuel Goepfert
Aiuto per la traduzione : Arnaldo La Scala

Contatto : metmap@orbifly.com




FONTI E CREDITI :

   NOAA